Wind_Speed
29 31 32 32 32 33 33 33 33 33 33 33 32 33 33 35 36 37 39 39 39 38 37 37 36 34 33 32 33 33 33 32 32 33 34 34 35 35 35 35 35 34 34 34 34 35 35 35 35 35 34 34 34 35 36 37 38 39 40 41 43 43 44 45 45 47 48 48 49 49 50 51 52 52 52 52 52 52 53 53 53 54 54 56 57
31 31 32 33 33 33 34 34 35 35 35 35 34 34 35 35 36 38 39 38 37 37 37 36 35 34 34 33 33 33 33 32 33 34 35 35 36 37 37 36 35 34 34 35 36 37 37 38 37 36 36 35 36 36 37 38 39 40 41 42 43 44 44 44 45 46 47 47 48 49 51 51 51 52 52 52 52 52 52 51 51 51 52 54 55
34 33 33 34 34 34 35 35 36 36 36 35 35 36 36 36 37 38 37 36 36 36 36 35 35 35 34 34 34 33 33 34 35 35 36 37 38 38 37 37 36 35 36 36 37 38 39 39 38 38 37 37 38 38 39 40 41 41 42 43 43 44 44 44 44 45 45 46 47 48 50 51 51 51 52 52 52 52 52 51 51 52 53 54 55
34 34 34 36 36 36 36 35 35 36 35 36 37 37 37 36 37 37 36 36 36 36 35 35 35 35 34 34 34 34 35 36 36 37 38 38 38 38 38 38 37 37 38 39 39 40 40 40 39 38 38 39 40 40 41 42 42 42 43 44 44 44 44 44 44 44 45 46 47 47 48 49 50 50 51 51 51 52 52 53 54 55 55 56 57
34 35 35 37 38 38 37 36 35 35 36 37 38 37 36 36 36 36 36 36 36 35 35 35 34 34 34 35 35 36 37 37 37 38 39 39 39 39 39 39 39 40 41 42 42 42 42 41 40 40 40 41 42 42 43 43 43 43 43 44 44 44 44 45 44 44 44 45 46 47 47 48 49 50 50 51 51 52 54 55 56 57 57 57 58
34 34 35 37 38 38 38 38 37 36 36 37 37 36 35 35 36 36 37 36 35 35 34 34 34 34 35 36 37 37 38 38 39 40 40 40 40 40 40 40 41 42 43 44 45 45 44 44 43 43 43 43 44 44 44 44 43 43 43 43 43 44 44 45 45 45 45 45 46 46 47 48 49 50 50 51 52 54 55 57 58 58 59 60 60
33 32 33 35 37 38 39 39 39 37 37 37 37 35 34 33 34 35 36 36 35 35 34 34 35 36 36 37 38 38 39 39 40 41 41 40 40 40 41 42 43 44 45 46 47 47 47 47 47 46 46 46 46 45 45 44 43 43 42 43 43 43 44 45 45 46 46 46 47 47 48 49 50 52 53 53 54 55 56 57 58 59 59 61 61
31 32 32 33 34 36 38 38 38 37 37 36 36 35 33 32 33 34 35 36 36 36 35 36 36 37 38 38 38 39 39 40 41 41 41 40 40 41 42 43 44 45 46 48 50 50 50 50 50 49 48 48 48 47 47 46 45 43 43 43 44 44 45 46 46 47 48 48 49 49 50 51 52 54 55 56 56 56 57 57 58 58 59 60 61
30 32 32 33 33 34 35 36 36 35 35 34 34 34 33 33 34 35 36 37 37 37 37 37 38 39 39 39 39 40 41 41 42 42 41 41 41 42 43 44 44 45 47 50 52 53 53 52 52 51 51 51 51 50 49 48 47 46 45 45 46 46 47 48 48 49 50 50 51 52 52 53 54 55 56 57 57 57 57 58 58 58 59 61 62
32 33 33 34 35 36 36 35 35 35 35 34 33 33 34 34 36 37 38 39 39 39 39 39 40 40 40 40 40 41 42 43 43 43 43 43 43 43 44 45 45 46 48 51 54 55 55 54 54 53 53 53 54 53 52 51 50 49 48 47 47 48 48 49 50 51 51 52 53 53 54 55 56 56 57 57 58 58 57 58 60 60 60 61 63
35 36 35 35 37 38 37 36 35 36 36 36 34 34 35 36 37 38 40 41 42 42 42 42 42 41 41 41 41 42 43 44 44 43 44 45 44 44 44 45 46 47 49 51 54 57 57 56 55 55 55 56 56 56 54 53 52 51 51 50 50 50 50 51 51 52 53 54 54 55 56 56 57 58 59 59 59 59 59 60 61 62 62 63 65
39 39 38 37 37 38 39 39 38 37 37 37 36 35 35 36 37 39 41 42 43 44 44 43 43 42 42 43 44 45 45 45 45 45 46 46 45 44 44 45 46 47 49 51 54 57 59 58 57 56 57 57 57 57 56 55 55 54 53 52 52 52 52 53 53 54 54 55 55 56 57 58 58 59 60 61 61 62 62 62 63 65 65 65 67
45 43 41 39 38 38 40 40 39 37 37 38 38 37 37 37 37 38 40 41 43 44 44 44 43 43 44 46 47 47 47 47 47 47 48 48 47 46 46 45 46 47 48 50 52 55 60 61 60 58 58 58 58 58 58 57 56 55 54 53 53 52 53 53 54 54 55 56 56 58 59 60 60 61 61 62 63 64 65 65 65 66 67 67 68
49 46 44 42 40 40 40 39 37 36 37 38 37 37 38 39 39 39 40 41 42 44 45 45 45 45 47 49 50 50 49 49 49 49 50 51 50 49 48 47 47 48 49 50 52 54 58 62 63 61 60 59 59 58 58 58 57 56 55 54 53 53 53 54 54 55 56 58 60 61 62 62 62 62 63 64 65 66 67 68 67 68 69 69 69
52 50 47 44 42 42 41 40 39 38 37 37 37 38 39 40 41 42 43 43 43 44 46 47 48 49 51 52 52 51 51 52 53 53 54 54 53 52 50 48 48 49 51 52 53 55 56 59 61 63 63 62 61 60 59 59 58 58 57 56 55 55 56 56 57 59 60 61 62 62 62 63 63 64 65 66 68 69 70 71 71 71 71 71 70
51 51 49 47 44 42 40 39 40 40 39 38 38 39 40 42 43 44 45 45 45 45 45 48 50 52 52 52 52 53 53 54 55 55 56 56 55 53 51 49 48 49 50 51 53 56 57 58 60 62 63 63 62 61 60 59 59 59 59 59 58 59 59 60 61 61 61 61 61 61 62 63 64 65 67 68 70 72 73 74 75 75 74 73 71
52 51 51 49 45 41 37 35 36 38 39 40 40 40 41 42 45 47 48 49 48 47 47 48 49 50 51 52 52 53 54 55 56 57 56 55 54 53 51 50 49 49 50 51 52 54 56 58 58 59 61 62 62 61 60 59 59 60 60 61 61 60 60 61 60 60 60 60 61 62 63 64 65 67 69 71 73 74 75 76 76 76 77 76 74
54 52 52 50 47 41 35 32 34 37 39 41 41 41 42 43 45 48 51 51 50 49 49 48 48 49 50 51 52 53 54 55 56 56 55 55 54 54 53 53 52 51 51 51 53 54 55 55 56 58 59 60 60 59 59 58 59 59 60 60 59 58 58 59 59 59 60 61 62 63 65 66 68 70 72 73 74 75 75 75 75 75 76 76 75
50 51 51 49 45 40 36 35 37 39 41 43 43 42 42 44 46 48 51 52 51 50 50 49 49 49 50 50 51 52 53 54 55 55 55 55 55 56 57 57 56 55 52 51 52 53 53 53 53 54 56 57 57 56 56 55 56 57 58 58 58 58 58 59 60 61 62 63 64 66 67 69 70 72 73 74 74 74 74 74 73 73 74 74 74
49 50 50 47 41 37 36 37 40 42 46 47 44 42 42 45 47 48 50 51 51 51 52 51 51 51 51 52 52 53 54 54 55 56 56 56 56 57 58 59 59 57 54 51 51 52 51 51 50 51 52 53 54 54 54 55 56 58 59 60 60 60 61 62 62 63 64 65 66 68 69 71 72 72 73 73 72 72 72 71 70 70 71 71 71
49 49 49 47 42 38 38 39 41 45 51 53 48 42 43 46 47 48 50 52 52 52 53 54 54 53 54 54 55 55 55 56 56 56 57 58 58 57 58 59 59 56 53 52 52 52 51 51 50 50 50 52 54 55 56 57 59 61 62 62 62 62 63 64 64 65 66 67 68 69 71 71 72 72 72 72 71 70 68 67 66 66 67 68 69
50 50 49 47 44 41 41 43 45 50 55 57 53 47 46 48 49 50 52 53 55 55 56 57 58 57 56 56 57 56 56 57 58 59 59 60 59 59 60 59 57 55 54 53 52 52 52 51 50 51 51 53 55 56 57 59 61 62 62 63 63 64 65 65 65 66 67 68 69 70 70 71 71 71 70 69 68 66 65 64 64 65 66 68 70
49 51 52 51 48 46 46 49 52 56 58 58 55 52 51 52 53 54 54 55 56 57 58 59 60 60 59 59 59 59 59 59 60 61 61 61 61 61 60 58 56 56 54 53 52 52 51 51 51 51 52 54 56 57 58 58 59 60 61 62 63 64 64 64 65 66 66 67 68 68 68 68 68 67 66 65 64 63 63 64 65 66 68 69 70
50 51 54 53 52 52 53 56 58 59 59 60 58 55 55 55 57 58 58 59 59 59 59 59 60 61 61 61 61 61 62 62 61 61 60 61 62 61 60 58 57 56 53 51 51 51 50 51 51 53 55 57 59 60 60 59 59 61 63 63 64 63 63 63 64 64 65 65 65 65 66 66 65 65 64 64 64 64 66 67 68 70 71 71 71
51 53 55 55 55 55 55 56 57 57 57 59 58 55 55 56 57 59 59 59 59 59 60 60 61 62 63 63 63 63 64 63 61 59 59 61 62 61 60 59 57 54 52 51 51 51 52 53 55 57 58 59 61 61 61 61 62 64 65 64 63 61 61 62 63 64 64 64 65 66 67 67 67 67 67 67 67 68 69 70 71 73 74 74 74
51 54 58 59 56 52 50 50 51 53 55 58 56 53 52 51 51 53 53 53 53 55 57 59 61 63 65 66 67 66 63 61 58 58 59 60 60 59 59 58 56 54 53 53 54 55 57 59 59 59 59 60 61 62 62 63 63 64 64 63 61 61 61 62 64 65 66 67 68 68 69 69 68 68 68 67 68 68 69 70 72 73 74 75 76
54 56 60 60 54 51 49 48 49 51 53 55 54 51 50 50 52 53 52 51 51 51 53 56 58 61 63 65 66 63 60 58 58 59 60 60 58 57 56 55 55 56 57 57 59 60 62 62 61 60 60 61 62 62 61 61 62 63 63 63 62 62 63 65 66 67 68 69 69 68 68 67 66 66 66 66 66 67 68 69 70 71 73 74 75
57 57 59 57 54 53 55 54 54 53 52 52 53 52 52 53 54 55 54 53 52 51 52 53 55 57 59 61 62 60 58 58 59 60 61 59 57 56 55 55 55 57 60 62 63 64 64 62 61 60 61 61 61 60 60 60 62 64 64 64 65 66 66 68 69 69 69 69 67 66 65 65 65 65 66 67 68 69 70 71 71 72 73 73 75
57 56 56 58 58 58 60 59 59 59 57 56 57 58 58 58 58 57 56 56 56 55 54 54 55 55 57 59 59 59 58 59 59 60 60 58 57 57 57 58 58 59 62 64 65 65 63 61 61 61 61 61 61 61 62 63 65 65 66 66 66 67 67 67 67 67 66 66 65 64 65 65 67 68 69 70 72 72 73 74 74 74 74 74 74
61 58 58 61 62 62 63 63 63 63 63 62 62 61 62 63 63 61 60 60 61 60 59 60 60 59 58 58 59 58 58 58 57 57 57 57 57 58 59 60 61 61 62 64 64 64 62 61 61 61 61 60 60 61 62 63 64 64 64 64 63 63 63 63 63 62 63 63 63 64 65 67 68 70 72 73 74 74 74 74 74 74 74 73 73
63 62 61 63 64 66 67 68 68 68 68 68 67 66 67 67 67 66 65 65 66 66 66 65 63 61 59 58 58 58 57 56 55 55 54 55 56 58 59 60 61 61 62 64 64 63 61 60 60 60 59 59 58 58 59 59 59 59 59 59 59 59 59 59 59 60 61 61 62 63 65 67 68 70 72 73 74 73 72 72 73 73 73 73 73
67 65 63 64 66 68 70 71 70 70 71 72 73 74 74 75 75 75 75 75 75 74 71 65 60 58 56 56 57 57 56 55 54 53 53 54 56 57 58 59 60 62 63 64 64 63 60 59 59 58 57 56 55 56 56 56 56 55 55 56 56 57 57 58 59 60 61 62 63 64 65 66 66 66 68 70 71 71 71 72 73 73 73 73 73
73 71 69 69 70 72 73 73 72 73 76 78 80 81 80 81 82 82 81 81 80 79 74 65 60 58 56 56 56 56 55 54 52 52 54 55 57 59 60 61 62 63 64 65 64 63 61 60 58 56 54 53 53 53 54 54 55 55 55 55 55 55 56 57 59 60 62 63 64 65 65 64 63 64 65 67 69 70 71 72 72 72 72 72 73
76 76 75 75 75 75 76 78 80 82 82 81 83 84 85 86 86 85 84 83 80 77 71 65 62 61 59 57 57 56 55 54 55 55 56 57 58 59 61 63 64 65 65 66 66 64 62 59 56 54 53 52 52 53 54 55 55 56 55 54 53 53 55 56 58 59 59 60 61 62 62 62 62 63 65 66 68 70 71 71 70 70 71 71 71
74 74 74 75 75 75 78 83 87 88 86 84 85 87 87 86 85 85 84 82 78 74 69 66 64 62 60 58 57 56 56 57 58 57 57 57 58 60 62 64 65 67 67 67 67 65 60 57 54 52 52 52 52 53 55 56 56 57 56 54 54 55 57 58 59 59 59 60 60 60 61 63 64 65 66 68 69 71 72 72 71 71 71 70 70
68 71 72 74 75 76 78 80 82 83 83 83 83 85 85 83 81 82 81 78 75 73 70 68 67 65 61 58 57 57 57 57 58 59 58 58 58 60 63 65 67 68 68 69 68 63 58 56 53 51 51 51 52 53 55 56 58 59 58 56 56 58 60 61 62 63 63 63 63 63 64 66 67 68 69 70 71 73 73 73 72 72 72 71 70
66 68 71 73 74 75 75 75 76 77 79 79 79 81 82 79 77 78 79 77 76 75 72 70 69 68 65 60 59 59 59 58 59 60 60 60 60 61 63 65 66 67 69 70 67 61 58 57 54 51 51 53 54 55 56 58 60 61 61 60 60 61 62 63 65 66 66 66 66 66 67 68 69 71 72 73 74 74 75 75 74 74 73 71 70
63 65 67 68 69 70 72 73 74 75 75 75 75 76 78 78 77 78 80 79 78 78 75 73 72 72 69 65 63 62 61 61 61 61 62 61 61 61 62 63 65 66 69 71 67 61 59 59 55 53 54 56 57 58 59 61 62 64 64 64 63 64 65 66 66 67 67 67 67 68 69 70 71 73 75 76 77 77 77 77 77 76 74 72 71
64 65 65 63 62 62 64 68 70 72 72 72 72 73 74 75 77 79 81 81 80 80 78 75 75 76 73 69 65 63 63 64 64 63 63 62 62 62 63 64 65 65 67 69 66 61 60 60 57 56 58 60 61 62 64 63 64 66 67 66 66 66 66 66 66 66 67 67 68 70 71 72 74 76 78 80 81 80 79 79 78 77 75 73 72
67 67 67 65 64 62 61 62 66 69 70 72 74 74 74 75 76 76 78 79 80 80 80 79 78 77 75 70 65 63 63 65 65 65 64 63 63 63 63 64 64 64 64 66 65 64 64 63 62 61 62 64 65 66 66 64 64 65 65 66 67 68 69 68 68 68 69 70 71 73 74 75 77 79 81 82 83 83 81 79 78 77 75 74 73
67 68 69 69 68 65 63 62 63 67 69 71 73 75 76 76 76 74 73 74 76 77 78 78 75 73 71 68 65 63 65 66 67 67 67 66 64 62 62 62 62 62 62 62 63 65 66 66 64 63 64 66 67 67 66 64 64 64 64 66 69 70 71 71 71 72 73 74 76 78 79 80 80 81 82 83 83 83 81 79 78 77 76 75 74
72 71 71 70 69 67 65 64 63 66 69 70 71 72 72 73 73 72 73 73 74 75 75 74 73 70 68 65 65 65 67 68 69 70 70 68 64 62 61 60 60 60 60 60 62 63 64 65 64 65 66 68 68 68 67 66 66 66 66 67 70 71 72 73 74 75 76 78 81 83 84 85 84 84 83 83 82 82 81 79 78 77 77 76 75
76 76 75 74 73 70 66 64 65 67 69 70 70 70 70 71 72 73 74 75 75 76 76 75 75 73 69 67 68 68 69 71 71 72 70 68 65 62 61 60 59 60 60 60 60 61 63 65 66 67 68 69 69 70 71 70 69 69 68 68 70 71 72 73 74 75 77 80 84 85 86 86 85 85 83 82 81 81 80 79 79 78 77 76 76
75 76 77 76 74 71 67 64 64 66 67 69 69 69 70 71 73 74 75 76 76 76 77 76 76 75 72 71 71 70 71 71 71 70 69 67 65 63 62 61 60 60 60 59 60 61 63 66 69 71 71 71 72 74 74 74 73 73 72 71 72 73 72 73 75 76 78 81 83 85 85 85 84 83 82 81 80 80 79 78 78 78 77 76 76
72 76 78 78 75 72 69 66 63 64 66 68 69 70 70 72 73 73 73 73 74 74 74 74 74 74 74 73 72 71 69 68 68 67 66 65 65 64 63 62 61 60 59 60 60 62 63 66 70 73 75 76 76 77 77 78 78 78 76 75 75 75 75 76 77 78 79 81 82 84 84 84 83 82 81 80 79 77 76 76 77 77 77 77 76
70 72 75 76 74 73 73 71 67 65 67 69 70 70 71 72 74 73 72 72 72 72 73 74 74 73 73 72 71 69 67 66 65 65 64 65 65 64 63 62 61 60 59 60 62 64 66 69 72 75 78 81 81 81 81 82 82 82 82 81 79 78 79 81 81 81 82 82 82 83 83 83 82 82 81 79 75 74 74 74 75 77 77 76 75
69 69 70 72 72 72 74 75 72 69 70 72 73 73 73 75 76 75 74 73 72 72 73 74 74 73 72 72 71 69 67 66 66 65 65 65 66 65 63 62 61 60 61 62 63 63 65 67 70 75 79 81 82 83 83 83 85 86 87 87 86 85 85 86 85 84 83 82 82 82 82 82 82 81 79 75 71 70 72 73 74 76 76 75 74
73 71 71 72 73 75 76 76 75 74 74 76 76 77 77 78 79 79 78 77 77 76 76 75 74 73 73 73 72 71 69 68 68 67 67 67 68 68 66 64 63 63 63 63 64 65 66 68 71 75 77 79 79 80 80 82 84 86 89 91 91 91 90 88 86 84 83 82 81 80 80 81 80 78 75 70 68 69 71 72 74 74 74 73 73
85 82 80 80 81 81 82 81 80 79 80 80 79 79 80 81 82 82 81 80 80 80 79 77 76 76 75 75 75 74 73 72 72 71 71 70 70 71 71 69 67 66 66 66 67 69 71 72 73 75 76 76 76 76 78 80 83 84 86 89 89 88 86 85 84 84 83 81 79 78 78 78 77 75 71 68 67 68 70 72 73 72 71 71 71
99 97 95 93 90 87 85 84 83 83 83 82 81 80 81 83 85 84 82 81 81 81 80 79 79 79 78 77 77 77 77 76 76 76 75 74 73 73 74 74 72 69 69 70 70 71 72 74 75 75 75 76 76 77 80 83 83 83 84 84 84 84 84 85 86 86 83 80 77 75 75 74 73 71 68 66 66 67 69 70 70 69 68 68 68
103 102 100 98 96 91 87 84 83 83 84 84 82 82 83 85 88 88 86 83 82 83 83 81 81 80 80 79 80 80 80 79 78 77 77 76 76 76 77 77 76 74 74 74 74 73 74 75 76 77 77 77 77 78 80 82 82 83 83 84 85 87 89 90 90 87 81 76 73 72 71 70 69 66 65 64 65 66 67 67 66 66 65 65 66
Wind_Direction
275 274 275 277 277 276 275 275 274 274 275 276 277 278 277 275 270 266 265 266 268 270 269 269 270 271 269 266 263 262 263 266 269 272 275 279 282 283 283 284 285 285 283 281 280 279 279 279 281 281 280 278 277 277 276 276 275 274 273 273 272 271 270 271 271 272 272 271 271 270 269 267 267 266 266 265 265 265 266 267 267 268 268 268 268
276 274 274 276 276 275 273 273 272 272 273 274 274 276 276 274 270 267 266 267 268 268 268 269 270 269 266 264 262 263 265 267 269 271 276 280 282 283 284 285 285 284 283 281 280 279 279 279 280 281 280 279 279 278 279 279 277 276 274 273 272 271 271 271 272 272 272 271 270 270 269 268 267 266 266 266 266 266 266 267 267 268 270 270 270
276 275 273 273 273 273 272 272 272 272 272 272 274 275 274 271 268 267 267 267 267 266 267 268 267 265 264 264 264 265 266 267 269 273 276 279 281 282 284 285 285 285 284 282 281 280 280 280 281 281 280 280 279 279 279 280 279 277 275 273 272 272 272 271 271 271 271 270 269 268 268 268 267 266 266 266 266 266 265 266 267 269 271 271 271
275 275 275 273 271 270 269 270 271 272 271 271 273 274 272 268 266 265 265 265 265 265 265 264 263 263 264 265 266 267 268 269 271 274 277 279 282 283 284 285 287 287 286 284 282 281 281 280 279 280 280 279 279 279 279 279 279 278 276 274 272 272 272 271 271 271 270 270 269 268 267 268 268 268 267 266 266 266 266 266 267 269 270 271 272
277 275 273 271 270 269 268 267 269 270 270 270 272 273 271 268 266 263 262 262 263 263 262 262 263 264 265 266 267 268 269 270 272 275 278 281 283 284 285 286 288 288 288 286 285 283 282 281 280 279 279 279 279 278 278 278 278 278 277 274 272 272 271 271 271 270 270 270 269 268 266 267 268 268 268 267 266 266 266 267 267 269 270 272 273
282 277 272 269 268 268 267 267 269 269 267 267 270 273 272 269 266 263 262 262 263 262 262 263 264 266 267 268 269 269 271 272 274 276 279 281 283 284 285 287 288 288 288 287 286 285 284 283 282 281 281 281 280 279 279 278 279 278 277 275 273 272 271 271 271 270 270 270 270 269 267 267 267 268 268 268 267 266 266 267 268 269 270 272 273
284 279 273 269 268 268 268 269 269 269 267 266 269 272 270 268 267 265 265 264 264 263 263 264 265 267 267 268 269 271 272 273 275 277 279 281 284 285 285 287 288 288 288 287 286 285 285 284 284 283 283 283 282 281 280 279 279 278 276 274 272 271 271 271 271 271 271 272 271 271 269 268 268 268 268 268 269 269 269 268 268 269 271 272 273
280 279 275 272 270 270 270 271 270 270 269 269 269 269 267 267 267 266 265 264 263 263 263 264 266 267 268 270 272 273 273 274 276 278 280 282 283 284 285 286 287 287 286 285 285 284 284 284 284 285 284 284 283 282 281 280 278 277 275 272 271 270 271 271 271 272 273 273 273 272 271 270 269 269 269 269 269 270 271 271 271 271 271 273 273
273 274 274 275 275 274 274 273 272 270 270 270 269 268 267 267 266 264 263 263 263 263 264 266 267 269 271 272 273 273 273 274 276 278 280 281 281 282 283 284 285 285 284 284 284 284 284 284 285 285 285 285 284 283 281 280 278 276 274 272 271 271 271 272 272 273 274 274 274 273 272 272 271 271 271 272 271 270 271 272 273 273 273 274 274
272 270 271 273 276 277 277 275 272 269 268 269 270 269 266 265 265 265 264 264 264 265 266 267 268 269 270 271 271 271 272 273 275 277 278 279 279 280 281 282 283 283 282 282 283 283 284 285 285 285 285 285 285 283 282 281 279 277 275 273 272 273 273 274 274 275 276 276 276 275 275 274 274 274 274 274 274 274 274 273 273 274 274 275 275
274 272 270 272 275 276 276 275 273 270 268 269 270 268 265 265 265 265 265 265 266 267 267 267 268 269 270 270 271 271 272 273 275 276 277 277 278 279 280 281 281 281 280 280 281 282 283 283 284 284 284 284 284 284 283 282 280 278 276 275 275 275 276 276 276 277 277 278 278 278 278 277 277 277 277 277 278 278 278 277 276 277 277 276 275
280 277 274 272 273 273 273 274 274 271 270 269 269 268 265 264 264 265 265 267 267 268 269 271 272 273 274 275 275 274 274 275 276 276 276 276 277 279 280 279 279 278 278 278 279 281 281 281 282 282 283 282 282 282 282 282 281 280 279 278 277 278 278 278 278 278 278 279 280 280 280 280 280 280 280 280 280 280 280 280 279 279 279 278 277
284 282 280 278 276 275 274 273 272 269 267 266 266 267 267 265 265 266 267 268 269 270 271 273 275 277 278 279 279 278 278 277 277 277 276 277 277 278 278 277 276 275 275 277 279 279 280 280 280 281 281 281 280 280 280 280 281 281 280 280 280 280 280 280 280 280 281 282 282 283 283 282 282 282 282 282 283 283 282 282 281 280 279 278 277
285 284 283 282 281 280 278 277 275 270 266 265 265 265 266 265 265 266 268 268 269 271 272 273 274 276 277 277 277 278 278 277 277 277 277 278 279 279 278 276 275 274 274 275 277 278 279 279 279 280 280 280 279 278 278 279 280 280 280 281 281 282 282 282 282 283 284 284 283 283 282 282 283 283 284 284 284 284 284 283 282 281 280 279 277
287 287 286 283 280 278 278 279 277 273 271 270 270 269 269 268 268 268 268 268 268 269 270 271 272 272 273 273 274 275 275 275 276 277 278 279 280 280 280 277 275 273 273 274 275 276 277 277 278 279 279 279 278 278 278 279 279 279 280 280 281 282 282 282 283 283 283 282 282 281 281 282 283 284 284 285 285 284 284 283 282 281 280 279 278
290 290 290 288 285 282 279 277 274 273 274 274 274 275 276 276 275 275 273 272 271 270 270 270 270 270 271 271 272 272 273 274 275 276 277 279 280 281 281 280 276 274 273 273 272 272 273 275 276 277 278 278 278 278 278 278 279 279 279 279 280 280 281 281 281 280 280 280 280 281 282 283 283 284 284 284 283 283 282 281 281 280 278 276 275
295 295 294 292 291 288 281 270 264 266 270 272 274 274 275 277 278 279 278 278 276 274 273 272 270 270 272 272 272 272 273 274 275 276 277 279 281 282 281 280 277 274 272 270 270 269 270 271 273 275 276 277 277 277 277 277 278 277 277 278 278 279 279 279 279 279 279 280 281 282 282 283 283 283 283 282 282 281 281 281 280 280 279 278 276
297 298 298 296 294 289 278 260 253 260 267 270 270 269 272 275 276 277 277 277 277 276 274 273 271 270 270 271 271 271 271 272 274 277 279 281 282 282 281 279 278 276 273 271 269 269 269 269 270 272 273 274 275 276 276 276 276 276 277 277 277 278 278 278 279 279 280 281 281 282 282 282 283 282 282 282 281 281 282 282 282 282 281 281 280
296 299 299 299 294 286 274 257 249 258 269 271 268 267 270 273 274 274 273 273 273 275 274 272 270 269 268 268 269 269 270 272 275 277 279 280 280 280 279 279 279 277 275 273 271 271 271 271 270 270 271 272 274 275 275 276 277 277 277 277 277 277 278 279 280 280 281 282 282 282 282 282 282 282 282 282 283 283 283 283 283 283 282 281 281
298 299 299 298 291 278 268 256 247 256 271 274 270 268 271 273 275 273 272 271 272 271 270 269 269 268 267 267 268 269 271 273 275 277 278 279 278 278 278 278 277 276 275 274 273 273 273 273 272 271 271 271 273 274 275 277 277 278 278 278 278 279 279 280 281 281 282 282 283 283 283 283 283 283 284 284 284 284 283 283 283 283 282 281 280
299 298 297 296 288 276 264 255 249 255 269 274 271 270 272 272 273 274 274 275 274 272 270 268 268 267 266 266 267 269 270 271 273 275 277 277 278 278 278 276 275 273 273 273 273 273 273 272 272 272 272 272 273 275 276 278 278 279 279 279 279 280 280 281 281 282 283 283 284 284 284 284 284 284 284 285 284 284 283 283 282 282 282 282 281
296 295 292 289 283 275 263 255 252 255 264 270 271 273 273 271 272 275 275 276 276 275 273 270 269 268 268 268 268 269 270 271 273 274 275 275 276 277 276 274 273 272 271 272 272 272 272 272 273 274 275 276 276 278 278 279 279 279 279 279 279 279 280 281 282 283 284 284 285 285 285 285 285 285 285 285 284 283 282 282 282 282 282 283 283
289 289 286 282 276 271 266 261 258 259 263 267 268 272 274 274 276 278 278 279 279 278 275 273 271 271 271 270 270 271 272 272 273 274 274 274 274 274 273 272 272 272 272 271 270 271 272 274 276 278 279 280 280 280 280 280 280 281 281 281 281 282 282 283 283 283 284 284 284 284 285 285 286 286 286 285 284 282 282 282 282 283 283 283 283
282 281 282 279 273 271 269 267 264 265 267 268 268 270 273 275 278 280 281 282 282 280 278 276 274 272 273 273 273 273 273 273 274 275 274 272 271 272 271 271 273 273 271 270 270 272 274 276 279 280 281 281 281 281 281 282 283 284 284 284 284 284 284 284 284 283 283 283 283 284 285 285 286 285 285 284 283 282 282 283 283 283 283 283 283
278 276 276 274 272 270 269 267 266 267 267 268 269 271 274 276 278 279 281 282 281 279 277 277 276 274 274 275 276 276 275 275 276 276 272 269 269 270 269 271 273 271 269 270 272 274 276 279 281 281 281 280 280 280 281 283 284 284 284 284 284 284 284 283 283 282 283 283 284 284 285 285 285 285 286 285 285 285 285 285 285 285 285 284 283
277 275 273 270 267 264 264 266 269 270 268 267 268 271 273 274 274 276 279 280 280 278 276 275 276 275 275 276 277 277 276 276 276 274 270 268 268 268 269 272 272 269 269 272 275 277 279 281 281 281 280 279 279 281 282 283 283 284 284 284 283 283 282 282 282 283 284 284 285 286 286 287 287 287 287 287 288 288 288 288 287 287 287 286 285
273 272 271 267 260 255 256 262 267 270 272 269 266 267 269 269 271 274 276 278 280 281 280 278 277 276 276 276 276 276 276 276 274 271 269 268 266 267 270 273 272 269 271 274 276 278 280 280 279 278 278 279 280 281 282 283 283 283 282 282 282 281 281 282 283 284 285 286 287 287 288 288 288 288 288 289 289 290 290 290 290 289 289 288 287
269 270 267 259 253 252 256 261 264 269 271 269 264 264 265 266 268 271 272 274 277 279 280 279 279 279 278 277 275 274 273 273 271 270 269 267 265 266 270 273 273 272 272 274 275 276 278 278 278 278 279 280 280 281 281 282 282 282 282 282 282 282 283 283 284 286 287 287 288 288 288 288 288 289 289 290 291 292 293 293 292 292 291 290 289
267 268 259 250 248 251 254 258 265 269 268 265 262 261 262 263 265 267 268 271 275 277 277 276 276 277 276 274 273 272 270 269 268 268 267 265 264 266 270 273 274 273 272 273 274 275 277 278 278 279 280 280 280 281 282 282 283 283 283 283 283 284 285 285 286 287 288 288 288 288 288 289 289 290 291 291 292 293 294 294 293 292 291 290 290
261 260 253 250 252 254 254 256 262 267 268 267 266 264 264 265 266 268 268 271 275 276 276 276 276 275 271 269 269 268 266 265 265 265 264 264 265 268 271 273 274 273 273 273 273 275 277 278 279 279 279 280 281 282 283 283 283 283 284 284 285 285 286 287 287 288 288 288 288 288 289 290 291 292 292 292 292 292 293 292 292 290 289 289 288
256 256 256 258 260 261 261 260 260 263 266 268 268 269 269 269 269 269 270 272 274 275 275 276 276 273 269 265 264 263 261 261 262 263 264 266 268 271 273 274 274 274 273 273 273 274 276 278 279 279 280 282 283 283 282 282 282 282 283 284 285 286 286 287 287 288 289 290 290 292 294 295 296 295 294 293 292 292 291 290 290 289 288 287 287
256 255 258 260 261 261 261 259 258 260 264 266 268 269 270 270 270 271 272 273 273 274 275 274 270 267 264 261 259 258 259 259 261 264 267 270 271 273 273 274 274 273 272 272 272 274 276 278 278 280 281 281 281 280 280 280 281 281 282 283 284 285 286 287 289 290 291 292 293 294 297 301 301 299 297 294 292 292 291 291 291 290 289 288 287
259 257 259 261 262 262 261 259 258 259 263 267 269 270 270 270 271 272 273 272 272 272 273 271 266 262 259 256 255 256 257 259 263 268 271 273 274 274 273 273 273 272 272 272 273 274 276 277 278 279 280 279 278 278 278 279 279 279 281 281 283 285 288 289 291 292 293 293 293 295 299 304 305 302 299 296 294 294 294 294 294 292 292 292 291
265 265 265 265 265 265 264 261 259 262 266 269 270 270 269 270 270 270 270 269 269 269 268 265 263 260 257 255 256 257 260 263 268 272 274 274 275 274 274 273 273 273 273 273 273 273 275 276 277 278 278 278 278 277 277 277 278 278 279 279 282 286 289 291 293 294 295 296 296 298 302 305 306 304 301 298 297 296 296 296 296 295 294 294 294
267 267 266 265 264 263 262 260 260 264 267 268 267 267 267 267 267 266 266 266 266 264 262 260 258 256 255 256 258 261 265 269 273 275 276 276 276 276 275 274 273 273 273 273 273 273 275 275 275 276 277 278 278 277 276 277 277 277 276 277 281 285 288 291 293 294 296 298 300 302 304 305 306 306 304 301 299 298 297 297 296 295 294 293 293
262 262 262 261 261 261 261 261 262 264 266 266 264 263 263 263 264 264 264 262 261 259 257 256 255 254 255 257 260 264 268 271 273 275 277 278 278 276 274 274 273 274 274 273 273 274 274 273 273 275 278 278 279 279 278 278 277 276 274 275 280 285 288 290 292 294 296 299 301 303 304 305 306 307 306 304 301 299 297 296 296 295 294 293 293
261 260 259 259 260 261 262 262 264 265 265 265 263 261 260 259 259 260 261 259 258 257 255 254 255 256 257 259 261 264 267 270 272 276 278 278 278 276 275 275 275 275 274 273 273 274 273 271 272 275 277 278 280 281 280 279 278 276 274 274 279 285 288 290 291 294 296 299 301 303 304 305 307 308 308 306 303 300 297 295 295 294 294 294 294
263 261 260 260 260 261 261 261 262 263 264 263 261 259 258 257 256 258 260 260 260 260 259 258 260 262 263 264 264 265 266 270 273 275 276 276 276 276 275 276 276 276 276 275 275 275 273 270 272 275 276 278 280 281 281 279 277 275 273 274 279 284 287 289 291 293 295 298 301 303 304 305 307 309 309 308 306 303 299 295 294 294 294 294 294
263 262 262 261 260 260 260 261 261 261 262 261 260 259 258 257 258 259 262 262 262 262 262 262 264 265 266 267 268 266 267 270 273 273 273 274 274 275 275 276 276 277 277 278 278 277 273 271 272 274 275 277 279 280 281 280 277 275 274 275 279 283 286 288 290 292 294 297 300 302 303 305 308 310 311 311 309 306 301 297 294 294 294 294 294
263 262 262 261 259 258 260 261 261 261 261 261 261 261 260 259 259 260 262 263 263 262 261 261 262 264 266 268 268 267 267 270 271 271 272 273 273 274 275 275 275 276 277 278 279 277 274 271 271 272 273 276 278 280 281 279 276 276 277 279 281 283 284 286 289 291 294 297 299 301 303 305 308 311 312 312 311 307 303 298 294 293 293 293 294
265 263 263 261 259 259 261 260 259 260 261 261 261 260 260 260 260 261 262 262 262 261 260 260 262 264 266 266 266 266 268 269 270 270 272 273 273 273 274 274 274 274 275 276 275 275 272 270 269 270 272 275 278 280 280 278 277 278 280 281 282 283 284 286 289 291 293 296 298 300 302 304 307 310 312 313 311 308 303 298 294 293 293 294 294
266 265 263 260 259 261 262 260 259 258 258 258 259 259 259 259 260 261 262 262 262 262 262 263 264 265 265 264 264 265 267 267 268 269 271 272 271 271 271 272 273 274 274 274 273 272 271 271 271 271 272 274 277 278 278 277 277 278 279 281 282 284 285 287 289 291 293 296 299 300 301 302 303 307 310 311 310 308 303 297 294 293 294 295 295
264 264 263 261 261 261 261 260 260 257 255 255 256 257 258 259 261 261 262 262 263 263 264 265 265 265 264 263 262 263 264 264 266 268 269 269 269 269 270 272 273 273 273 273 272 271 272 273 273 272 272 274 276 276 276 275 274 276 278 280 281 283 285 287 289 291 294 296 298 299 300 300 302 305 308 309 308 306 302 296 294 294 295 295 296
259 261 263 263 262 260 259 258 258 256 253 252 253 255 256 257 258 259 260 260 260 262 264 265 265 265 264 263 263 263 262 262 263 264 265 267 268 269 270 272 273 274 274 275 275 275 274 274 273 271 272 273 275 276 275 274 273 275 277 279 281 283 285 287 289 291 293 296 297 297 298 300 302 305 307 307 306 303 299 296 294 295 296 296 295
254 258 261 263 262 260 260 258 256 255 254 253 253 255 255 255 255 256 256 257 258 258 260 260 262 263 264 264 264 263 261 259 260 262 264 265 267 268 269 271 273 273 274 276 278 279 279 277 275 273 272 273 274 276 276 274 272 273 275 277 280 282 285 287 289 290 293 295 296 297 298 300 303 305 306 306 304 300 297 295 295 295 296 295 294
248 250 254 257 258 260 262 262 259 257 256 255 255 256 255 254 252 252 252 254 256 256 257 258 259 261 262 263 262 259 257 257 258 261 263 264 265 266 268 270 271 271 273 275 277 279 279 278 277 275 274 274 274 275 275 275 273 272 273 276 279 282 284 286 287 289 292 294 296 297 299 301 303 305 306 305 302 298 296 296 296 296 296 295 294
246 245 246 248 250 254 258 259 259 259 258 257 256 256 256 253 251 249 250 251 253 254 255 257 257 259 260 261 259 256 255 256 258 260 262 263 264 265 266 267 268 268 270 271 273 274 275 276 277 277 276 275 274 274 275 276 275 274 274 275 278 281 283 284 285 288 291 294 295 297 300 302 303 304 305 303 300 297 297 297 297 297 296 294 294
250 246 245 246 248 250 251 250 251 254 256 256 256 257 257 254 251 249 249 250 251 253 254 254 256 258 261 261 257 254 254 256 257 259 260 261 262 263 263 264 264 265 266 267 269 272 274 275 276 277 276 275 275 275 276 277 277 276 275 275 277 279 281 282 284 287 291 293 295 297 299 300 302 303 303 300 298 297 297 297 297 296 295 294 293
256 254 253 252 251 250 248 246 247 249 251 253 254 256 257 254 250 249 249 249 251 253 253 253 255 257 259 259 257 255 255 256 258 259 258 257 257 259 260 261 262 263 264 266 268 270 270 270 270 271 272 273 274 275 276 276 277 277 276 275 276 278 280 283 286 289 291 293 295 296 297 299 300 300 300 298 296 295 296 296 296 295 293 293 293
258 258 258 257 254 249 245 244 245 246 247 249 252 255 257 255 250 248 248 249 250 251 252 252 253 255 256 256 255 254 255 256 258 259 258 256 254 255 257 259 260 260 261 263 265 267 268 268 269 270 271 272 273 273 274 275 277 277 276 276 277 280 283 285 288 290 291 292 293 295 296 297 297 297 296 295 294 294 295 295 294 293 292 292 293
259 257 257 257 253 249 245 244 243 243 245 247 249 252 254 254 252 249 247 247 247 248 249 250 251 252 254 254 254 253 254 256 257 258 258 256 255 255 255 256 256 256 257 259 261 263 266 268 270 271 272 273 273 273 274 276 276 276 277 279 281 283 285 287 288 289 290 291 292 293 294 294 294 293 293 292 293 293 294 293 292 292 292 293 294
Height
5788 5786 5785 5784 5783 5782 5781 5781 5781 5781 5780 5780 5779 5778 5777 5776 5775 5775 5774 5773 5773 5772 5772 5772 5772 5772 5772 5772 5772 5772 5772 5772 5773 5772 5772 5772 5771 5771 5771 5770 5770 5770 5770 5769 5768 5768 5767 5767 5766 5766 5766 5765 5765 5765 5764 5763 5763 5762 5762 5761 5761 5761 5761 5761 5761 5760 5760 5759 5759 5759 5759 5760 5761 5762 5762 5763 5764 5763 5763 5763 5763 5763 5763 5762 5762
5784 5783 5781 5779 5778 5778 5777 5777 5777 5777 5776 5775 5775 5774 5773 5772 5770 5769 5769 5769 5769 5768 5767 5767 5768 5767 5767 5767 5767 5767 5768 5768 5768 5768 5767 5767 5767 5766 5766 5765 5765 5765 5764 5764 5763 5762 5762 5761 5761 5760 5760 5760 5759 5759 5758 5758 5757 5757 5756 5755 5754 5754 5754 5754 5754 5754 5754 5754 5754 5753 5753 5754 5755 5756 5756 5757 5758 5757 5757 5757 5757 5757 5756 5756 5755
5778 5777 5776 5775 5774 5773 5773 5773 5772 5772 5771 5771 5770 5769 5768 5767 5766 5765 5764 5764 5764 5763 5763 5763 5762 5762 5762 5762 5762 5763 5763 5763 5763 5763 5763 5762 5761 5761 5760 5760 5760 5760 5759 5759 5758 5757 5756 5756 5756 5755 5754 5754 5753 5753 5752 5752 5751 5751 5750 5749 5748 5747 5747 5748 5748 5748 5748 5748 5749 5748 5747 5747 5748 5750 5750 5751 5751 5751 5751 5751 5750 5750 5750 5749 5748
5773 5772 5771 5769 5769 5769 5768 5768 5768 5767 5767 5766 5765 5764 5763 5762 5761 5760 5760 5759 5759 5759 5758 5757 5757 5757 5757 5757 5757 5758 5758 5758 5758 5758 5757 5757 5756 5756 5755 5755 5755 5755 5754 5753 5753 5752 5751 5751 5750 5749 5748 5748 5747 5747 5746 5746 5745 5745 5744 5743 5742 5741 5741 5741 5741 5742 5742 5742 5742 5743 5742 5741 5741 5743 5744 5745 5746 5744 5744 5744 5744 5743 5743 5741 5740
5768 5767 5766 5764 5763 5763 5762 5763 5763 5762 5762 5761 5760 5758 5757 5756 5756 5755 5755 5754 5754 5753 5753 5752 5752 5752 5752 5752 5752 5753 5752 5752 5753 5752 5752 5751 5751 5751 5750 5750 5750 5749 5748 5747 5747 5746 5746 5745 5744 5743 5742 5741 5741 5740 5740 5739 5739 5738 5737 5736 5735 5735 5734 5734 5735 5736 5736 5736 5736 5736 5737 5736 5735 5736 5737 5738 5739 5739 5737 5737 5737 5737 5736 5734 5733
5761 5762 5761 5759 5758 5757 5756 5757 5757 5757 5757 5755 5754 5753 5752 5751 5751 5750 5750 5749 5749 5748 5748 5748 5748 5747 5747 5747 5747 5747 5747 5747 5747 5747 5746 5746 5746 5745 5745 5744 5744 5743 5742 5741 5740 5740 5739 5738 5738 5737 5736 5735 5735 5734 5733 5733 5732 5732 5731 5730 5729 5729 5728 5728 5728 5729 5730 5730 5730 5730 5731 5731 5730 5730 5731 5731 5731 5732 5731 5730 5730 5730 5729 5727 5725
5755 5755 5755 5754 5753 5752 5751 5751 5751 5751 5751 5750 5749 5748 5747 5746 5746 5745 5745 5745 5744 5744 5743 5743 5743 5742 5742 5742 5742 5742 5742 5742 5741 5741 5741 5740 5740 5740 5739 5738 5738 5736 5735 5734 5733 5733 5732 5732 5731 5731 5730 5729 5728 5727 5727 5726 5726 5725 5724 5724 5723 5722 5722 5722 5722 5722 5724 5724 5724 5725 5725 5725 5725 5724 5725 5725 5725 5724 5723 5724 5724 5724 5722 5720 5718
5750 5749 5749 5748 5748 5747 5746 5745 5746 5746 5745 5745 5744 5743 5742 5741 5741 5740 5740 5740 5739 5739 5738 5738 5737 5737 5737 5737 5737 5737 5736 5736 5735 5735 5735 5735 5734 5733 5733 5732 5731 5730 5729 5728 5727 5726 5726 5725 5725 5724 5724 5723 5722 5721 5720 5719 5719 5719 5718 5717 5717 5716 5716 5716 5716 5715 5716 5717 5718 5718 5718 5719 5719 5719 5719 5720 5720 5719 5716 5715 5716 5717 5716 5713 5711
5746 5745 5744 5743 5742 5741 5741 5741 5741 5740 5740 5739 5738 5737 5737 5736 5735 5734 5734 5734 5733 5733 5733 5732 5731 5731 5731 5731 5731 5730 5730 5729 5729 5729 5729 5729 5728 5727 5727 5726 5725 5724 5722 5721 5720 5719 5719 5719 5718 5718 5717 5717 5716 5715 5714 5713 5713 5712 5712 5711 5710 5710 5710 5709 5709 5709 5709 5710 5711 5711 5712 5712 5712 5713 5713 5713 5713 5715 5713 5709 5706 5708 5708 5705 5703
5740 5740 5740 5739 5737 5736 5736 5736 5735 5735 5734 5734 5733 5732 5731 5730 5729 5728 5728 5728 5727 5727 5727 5726 5725 5725 5725 5725 5724 5724 5724 5723 5723 5724 5723 5723 5722 5722 5721 5720 5719 5717 5716 5714 5713 5712 5712 5712 5712 5712 5711 5710 5710 5709 5708 5707 5707 5706 5705 5705 5704 5703 5703 5702 5702 5702 5702 5703 5703 5704 5704 5705 5705 5705 5706 5706 5706 5707 5709 5707 5703 5702 5702 5697 5692
5733 5734 5734 5734 5733 5731 5730 5730 5730 5729 5728 5728 5727 5726 5725 5724 5723 5722 5722 5722 5721 5721 5720 5720 5719 5719 5719 5718 5718 5717 5717 5717 5717 5717 5717 5716 5716 5716 5715 5714 5712 5711 5709 5708 5706 5705 5706 5706 5706 5705 5705 5704 5703 5702 5702 5701 5700 5700 5699 5698 5697 5697 5696 5696 5695 5695 5695 5695 5696 5696 5696 5697 5697 5697 5696 5697 5698 5698 5699 5700 5697 5697 5698 5694 5687
5727 5726 5727 5728 5728 5726 5725 5724 5724 5723 5723 5722 5720 5719 5719 5718 5717 5716 5716 5716 5715 5715 5715 5714 5714 5714 5713 5712 5712 5711 5711 5711 5711 5711 5710 5710 5709 5709 5709 5708 5707 5705 5704 5702 5700 5699 5698 5698 5699 5698 5698 5697 5696 5696 5695 5695 5694 5693 5692 5692 5691 5690 5689 5689 5688 5688 5688 5688 5688 5688 5688 5688 5689 5688 5687 5687 5687 5688 5689 5690 5689 5688 5690 5688 5684
5721 5720 5719 5720 5720 5720 5719 5718 5718 5718 5717 5716 5715 5714 5713 5712 5711 5711 5710 5710 5709 5709 5709 5709 5709 5708 5707 5707 5706 5705 5705 5705 5704 5704 5703 5703 5703 5703 5703 5702 5701 5700 5698 5697 5695 5693 5691 5690 5691 5691 5691 5690 5690 5689 5688 5688 5687 5686 5686 5685 5684 5684 5683 5682 5682 5682 5681 5681 5681 5680 5680 5679 5679 5679 5678 5677 5677 5677 5678 5680 5680 5679 5680 5680 5676
5714 5714 5713 5713 5712 5711 5710 5710 5710 5711 5710 5710 5709 5709 5708 5707 5706 5705 5705 5704 5704 5704 5704 5703 5703 5702 5701 5700 5699 5699 5699 5698 5697 5697 5696 5696 5696 5696 5696 5696 5695 5694 5693 5691 5689 5687 5685 5684 5683 5683 5684 5683 5683 5682 5681 5681 5680 5679 5679 5678 5678 5677 5676 5675 5674 5674 5673 5673 5672 5672 5671 5670 5670 5669 5668 5667 5667 5667 5667 5668 5670 5670 5670 5670 5668
5707 5707 5706 5706 5706 5706 5705 5704 5703 5702 5703 5703 5703 5703 5702 5702 5701 5701 5700 5700 5700 5699 5699 5698 5697 5696 5695 5694 5694 5693 5692 5691 5691 5690 5689 5689 5689 5689 5689 5689 5689 5688 5687 5686 5684 5682 5680 5678 5677 5676 5676 5676 5675 5675 5674 5673 5673 5672 5671 5671 5670 5669 5668 5667 5666 5666 5665 5665 5664 5663 5662 5661 5661 5660 5659 5658 5657 5657 5657 5656 5658 5659 5660 5660 5658
5700 5699 5698 5698 5698 5699 5700 5699 5698 5697 5696 5695 5695 5695 5695 5694 5694 5694 5694 5695 5695 5695 5694 5693 5692 5691 5690 5689 5688 5687 5686 5685 5684 5683 5683 5683 5682 5681 5681 5681 5681 5681 5680 5679 5678 5676 5674 5672 5671 5670 5669 5668 5668 5667 5666 5666 5665 5664 5664 5663 5663 5662 5660 5659 5658 5657 5657 5656 5655 5654 5653 5652 5652 5651 5649 5649 5647 5647 5646 5645 5645 5646 5648 5650 5649
5691 5691 5690 5689 5690 5691 5692 5692 5692 5692 5690 5689 5688 5687 5687 5687 5686 5685 5685 5686 5687 5688 5688 5687 5686 5685 5685 5684 5682 5681 5680 5678 5677 5677 5677 5676 5675 5674 5674 5673 5673 5673 5672 5672 5671 5669 5668 5667 5666 5664 5662 5661 5660 5659 5658 5658 5657 5657 5656 5656 5655 5654 5652 5651 5650 5649 5648 5647 5646 5645 5644 5642 5642 5641 5639 5638 5637 5636 5635 5634 5633 5632 5632 5635 5637
5684 5683 5682 5682 5683 5683 5684 5685 5684 5684 5684 5683 5681 5680 5680 5679 5679 5678 5677 5677 5678 5679 5679 5679 5679 5679 5678 5677 5677 5675 5674 5673 5672 5671 5670 5670 5669 5667 5666 5665 5665 5665 5664 5664 5663 5662 5661 5661 5660 5658 5656 5655 5653 5652 5651 5650 5650 5649 5649 5648 5647 5646 5644 5643 5642 5641 5639 5638 5636 5635 5634 5632 5631 5630 5628 5627 5626 5624 5623 5622 5621 5620 5619 5620 5621
5679 5677 5676 5676 5676 5676 5677 5677 5676 5676 5676 5675 5674 5673 5673 5672 5671 5670 5669 5669 5670 5670 5671 5671 5672 5671 5671 5670 5670 5669 5668 5667 5665 5664 5664 5663 5662 5660 5659 5658 5657 5656 5656 5655 5654 5654 5653 5653 5653 5651 5650 5648 5646 5645 5644 5643 5642 5641 5641 5640 5639 5638 5636 5634 5633 5631 5630 5628 5626 5624 5623 5622 5621 5619 5617 5616 5614 5613 5613 5611 5610 5608 5607 5607 5607
5673 5672 5670 5671 5671 5670 5671 5670 5669 5668 5667 5666 5666 5667 5667 5665 5664 5663 5662 5662 5662 5662 5663 5663 5664 5663 5663 5662 5662 5661 5661 5659 5658 5657 5657 5656 5654 5654 5653 5651 5650 5648 5648 5647 5646 5645 5645 5645 5644 5643 5642 5641 5639 5638 5637 5636 5635 5634 5633 5632 5631 5629 5627 5625 5624 5622 5620 5618 5616 5614 5613 5612 5610 5608 5607 5605 5604 5603 5602 5600 5599 5598 5595 5594 5594
5665 5665 5665 5665 5665 5665 5665 5664 5662 5660 5658 5657 5658 5660 5659 5658 5657 5656 5655 5654 5654 5654 5654 5654 5655 5655 5655 5654 5653 5653 5653 5651 5650 5650 5650 5648 5647 5646 5645 5643 5642 5641 5640 5639 5637 5637 5636 5636 5635 5635 5634 5633 5632 5630 5629 5628 5627 5626 5625 5624 5622 5620 5618 5616 5614 5612 5611 5608 5606 5604 5602 5601 5600 5598 5597 5595 5594 5592 5592 5591 5589 5588 5585 5582 5581
5659 5659 5659 5659 5658 5658 5658 5657 5655 5652 5649 5649 5650 5651 5651 5651 5650 5649 5649 5648 5646 5645 5645 5645 5645 5645 5646 5646 5645 5645 5644 5643 5643 5642 5642 5640 5639 5638 5636 5635 5634 5632 5632 5631 5630 5629 5628 5628 5628 5627 5626 5625 5623 5622 5621 5620 5619 5618 5617 5615 5614 5611 5609 5607 5605 5603 5601 5599 5597 5594 5593 5591 5590 5588 5587 5585 5584 5582 5581 5581 5578 5576 5575 5571 5569
5652 5652 5652 5651 5650 5650 5649 5648 5646 5642 5641 5641 5641 5642 5642 5642 5642 5641 5642 5642 5640 5638 5637 5636 5636 5636 5637 5637 5636 5637 5636 5635 5635 5634 5634 5633 5631 5630 5629 5628 5626 5624 5624 5623 5622 5622 5621 5620 5620 5618 5617 5616 5615 5614 5613 5612 5611 5609 5608 5607 5605 5603 5600 5598 5596 5594 5592 5590 5587 5585 5583 5582 5580 5579 5577 5575 5574 5573 5571 5570 5568 5565 5563 5561 5557
5644 5644 5643 5642 5640 5640 5638 5636 5634 5632 5632 5632 5632 5633 5633 5633 5633 5632 5633 5633 5632 5631 5631 5629 5629 5629 5629 5628 5628 5629 5628 5627 5627 5626 5625 5624 5622 5622 5621 5620 5619 5617 5617 5616 5615 5614 5613 5612 5611 5610 5609 5607 5606 5605 5604 5603 5602 5600 5599 5598 5596 5594 5591 5589 5586 5584 5582 5580 5578 5576 5574 5573 5571 5569 5568 5566 5564 5562 5560 5559 5557 5554 5551 5549 5547
5635 5635 5634 5632 5630 5629 5627 5624 5623 5623 5623 5622 5622 5623 5624 5624 5624 5623 5624 5625 5624 5623 5622 5622 5622 5621 5620 5620 5619 5619 5618 5618 5618 5617 5616 5614 5613 5614 5613 5612 5611 5610 5609 5608 5607 5606 5605 5604 5603 5602 5600 5599 5598 5597 5595 5594 5592 5591 5590 5588 5587 5585 5582 5579 5577 5574 5572 5570 5568 5566 5565 5563 5562 5559 5557 5556 5554 5552 5551 5549 5546 5544 5541 5538 5536
5626 5626 5624 5622 5620 5619 5616 5614 5613 5612 5612 5612 5612 5613 5613 5614 5614 5614 5615 5615 5614 5614 5613 5613 5613 5612 5611 5611 5610 5609 5609 5609 5608 5607 5605 5605 5605 5605 5605 5603 5603 5602 5601 5600 5599 5597 5596 5595 5594 5593 5592 5591 5589 5588 5586 5585 5583 5582 5581 5579 5577 5575 5572 5569 5567 5565 5563 5561 5559 5557 5555 5553 5552 5550 5548 5546 5544 5542 5541 5539 5536 5534 5531 5528 5526
5617 5614 5611 5610 5610 5608 5606 5604 5602 5601 5601 5600 5601 5602 5603 5603 5604 5605 5605 5604 5604 5603 5602 5603 5603 5603 5603 5602 5601 5600 5599 5599 5598 5597 5596 5596 5597 5597 5596 5595 5594 5593 5592 5591 5590 5589 5587 5587 5586 5585 5584 5582 5580 5579 5577 5575 5574 5573 5571 5570 5568 5566 5563 5560 5557 5555 5553 5551 5549 5547 5546 5544 5542 5541 5539 5537 5535 5533 5531 5528 5525 5523 5520 5517 5515
5604 5601 5599 5598 5597 5594 5593 5593 5591 5590 5590 5589 5590 5592 5593 5594 5596 5596 5596 5595 5594 5593 5592 5592 5592 5593 5593 5593 5592 5591 5590 5589 5588 5587 5587 5588 5588 5588 5587 5586 5586 5585 5584 5583 5581 5580 5579 5578 5577 5576 5574 5573 5571 5569 5568 5566 5565 5564 5562 5561 5559 5556 5554 5551 5548 5546 5544 5542 5540 5538 5537 5536 5534 5532 5531 5528 5526 5524 5521 5518 5515 5512 5510 5507 5504
5588 5586 5585 5584 5583 5582 5582 5581 5580 5580 5579 5579 5580 5582 5583 5585 5587 5588 5587 5586 5584 5583 5583 5583 5583 5584 5584 5583 5582 5581 5581 5580 5579 5579 5579 5579 5579 5579 5578 5578 5577 5576 5574 5573 5572 5571 5570 5569 5568 5567 5565 5563 5562 5560 5559 5557 5556 5555 5553 5552 5550 5547 5545 5543 5540 5538 5536 5533 5532 5530 5528 5527 5525 5523 5521 5519 5516 5514 5511 5508 5505 5502 5499 5496 5493
5571 5572 5572 5572 5572 5573 5574 5573 5572 5570 5570 5569 5571 5573 5574 5574 5576 5577 5577 5576 5574 5573 5574 5574 5574 5575 5575 5573 5572 5572 5571 5571 5571 5571 5570 5570 5570 5569 5569 5568 5567 5565 5564 5563 5562 5561 5561 5560 5558 5557 5555 5554 5553 5551 5550 5548 5547 5546 5544 5542 5541 5539 5536 5534 5532 5530 5528 5525 5523 5522 5520 5518 5516 5514 5512 5509 5507 5504 5501 5499 5495 5493 5489 5486 5483
5562 5564 5566 5566 5567 5567 5567 5566 5564 5562 5561 5561 5562 5563 5564 5564 5565 5566 5566 5566 5564 5564 5564 5564 5565 5566 5564 5563 5563 5562 5562 5562 5563 5563 5562 5562 5561 5560 5559 5558 5557 5555 5554 5553 5552 5552 5551 5550 5548 5547 5546 5544 5543 5541 5540 5539 5538 5537 5536 5534 5532 5531 5528 5526 5524 5522 5519 5517 5515 5513 5511 5509 5506 5504 5502 5499 5496 5494 5491 5488 5485 5482 5480 5476 5472
5555 5558 5559 5559 5558 5557 5556 5555 5554 5552 5551 5551 5551 5552 5553 5553 5553 5554 5555 5555 5555 5555 5555 5555 5556 5555 5553 5553 5552 5551 5552 5553 5554 5554 5554 5553 5552 5551 5550 5548 5547 5545 5544 5543 5543 5542 5541 5540 5539 5537 5536 5535 5533 5532 5531 5531 5530 5528 5528 5526 5524 5522 5520 5518 5516 5513 5511 5508 5506 5504 5502 5499 5496 5493 5491 5489 5486 5484 5480 5477 5475 5471 5468 5465 5461
5543 5547 5549 5549 5548 5547 5546 5544 5544 5541 5540 5540 5539 5540 5542 5542 5542 5543 5544 5545 5545 5546 5547 5547 5547 5546 5545 5544 5542 5541 5542 5543 5544 5544 5544 5543 5543 5542 5541 5539 5537 5536 5535 5534 5533 5533 5531 5530 5529 5528 5526 5525 5524 5523 5523 5522 5521 5520 5519 5518 5516 5514 5511 5509 5507 5505 5502 5500 5497 5495 5492 5490 5486 5483 5481 5478 5476 5474 5470 5468 5465 5461 5458 5454 5450
5531 5533 5536 5537 5537 5538 5537 5536 5533 5531 5529 5529 5527 5528 5530 5531 5532 5533 5533 5534 5535 5536 5537 5538 5537 5537 5536 5534 5532 5532 5532 5533 5533 5533 5533 5533 5533 5532 5531 5530 5528 5527 5526 5525 5524 5523 5521 5520 5519 5517 5516 5516 5515 5515 5514 5514 5513 5512 5511 5509 5508 5505 5503 5501 5498 5496 5494 5491 5489 5486 5483 5480 5477 5474 5471 5469 5467 5465 5462 5459 5456 5452 5449 5445 5441
5519 5521 5523 5524 5524 5525 5525 5524 5522 5520 5519 5518 5515 5515 5517 5520 5521 5521 5521 5522 5524 5525 5527 5527 5526 5526 5525 5523 5522 5522 5522 5522 5522 5522 5522 5523 5523 5522 5522 5521 5520 5518 5517 5516 5515 5514 5512 5511 5509 5508 5507 5507 5507 5506 5506 5505 5504 5504 5503 5501 5498 5496 5494 5492 5490 5487 5485 5482 5480 5477 5474 5471 5468 5465 5462 5460 5458 5456 5453 5451 5448 5444 5441 5437 5433
5509 5510 5511 5512 5512 5512 5512 5512 5512 5510 5509 5507 5505 5504 5506 5509 5510 5509 5509 5511 5513 5513 5515 5515 5515 5515 5514 5513 5513 5512 5512 5513 5512 5512 5513 5513 5513 5513 5513 5512 5510 5509 5508 5508 5506 5505 5504 5502 5500 5499 5499 5498 5498 5498 5497 5497 5496 5495 5495 5493 5490 5487 5485 5484 5481 5478 5476 5473 5470 5468 5465 5463 5460 5457 5454 5451 5449 5447 5444 5442 5439 5436 5432 5429 5425
5499 5499 5500 5501 5500 5500 5500 5500 5500 5499 5497 5496 5495 5493 5495 5498 5499 5498 5498 5499 5501 5502 5504 5504 5505 5505 5504 5503 5503 5503 5503 5503 5503 5503 5503 5504 5504 5504 5504 5502 5501 5500 5500 5498 5497 5496 5495 5493 5492 5491 5491 5490 5489 5489 5489 5488 5487 5486 5486 5485 5482 5479 5477 5475 5472 5469 5466 5463 5460 5458 5456 5454 5452 5448 5445 5442 5439 5437 5435 5432 5430 5427 5423 5420 5416
5488 5489 5489 5489 5489 5489 5488 5487 5487 5487 5486 5485 5484 5483 5484 5486 5488 5487 5487 5489 5491 5492 5494 5495 5495 5495 5494 5493 5493 5493 5493 5494 5494 5494 5494 5495 5495 5495 5494 5493 5492 5491 5490 5489 5488 5487 5486 5485 5483 5482 5482 5481 5481 5481 5480 5479 5478 5477 5477 5476 5474 5472 5469 5466 5463 5460 5457 5454 5451 5449 5447 5445 5444 5440 5437 5434 5430 5428 5425 5422 5419 5417 5413 5410 5406
5477 5477 5478 5479 5479 5478 5477 5476 5476 5476 5476 5474 5473 5473 5474 5476 5478 5479 5479 5481 5482 5483 5484 5485 5485 5484 5484 5483 5482 5483 5483 5484 5484 5484 5485 5486 5486 5485 5484 5483 5482 5482 5481 5480 5479 5478 5477 5476 5475 5474 5473 5473 5472 5472 5471 5469 5468 5468 5467 5466 5465 5463 5461 5458 5455 5452 5449 5446 5442 5440 5438 5436 5435 5432 5428 5425 5421 5418 5415 5412 5409 5406 5404 5400 5396
5465 5465 5465 5467 5468 5468 5467 5467 5466 5465 5465 5464 5463 5463 5464 5466 5469 5471 5470 5470 5470 5471 5471 5472 5473 5473 5472 5472 5472 5472 5473 5473 5473 5473 5474 5475 5476 5475 5474 5473 5472 5472 5472 5471 5470 5469 5468 5467 5466 5465 5465 5464 5463 5462 5461 5460 5458 5458 5458 5457 5455 5454 5451 5449 5447 5443 5440 5437 5434 5431 5429 5426 5425 5422 5419 5416 5412 5408 5405 5402 5399 5396 5394 5390 5387
5454 5454 5453 5454 5455 5457 5457 5457 5456 5455 5455 5454 5453 5454 5455 5456 5459 5460 5458 5457 5457 5458 5458 5459 5461 5462 5462 5461 5461 5461 5462 5463 5463 5462 5463 5464 5464 5464 5463 5462 5462 5462 5462 5462 5462 5461 5460 5458 5457 5457 5456 5455 5454 5453 5451 5450 5449 5449 5449 5447 5445 5443 5441 5439 5437 5434 5431 5428 5425 5423 5420 5417 5415 5413 5410 5406 5402 5399 5395 5392 5389 5386 5383 5380 5377
5440 5442 5441 5441 5443 5445 5446 5446 5446 5445 5444 5444 5443 5444 5445 5445 5447 5447 5446 5446 5446 5446 5447 5449 5450 5451 5451 5451 5451 5452 5452 5452 5452 5452 5452 5452 5452 5452 5452 5452 5452 5452 5452 5452 5452 5452 5451 5449 5448 5448 5447 5446 5444 5443 5442 5441 5440 5439 5439 5437 5434 5432 5431 5429 5427 5425 5422 5419 5417 5414 5411 5408 5406 5403 5400 5396 5393 5389 5385 5382 5379 5376 5373 5370 5367
5426 5428 5428 5427 5429 5433 5435 5435 5435 5434 5433 5433 5432 5433 5434 5434 5435 5434 5434 5435 5436 5435 5436 5438 5439 5439 5440 5440 5440 5442 5442 5442 5443 5442 5442 5441 5441 5441 5442 5442 5442 5442 5442 5442 5442 5442 5441 5440 5439 5439 5438 5436 5435 5434 5432 5431 5430 5429 5429 5427 5425 5422 5421 5420 5417 5415 5412 5410 5408 5405 5402 5399 5397 5394 5391 5387 5383 5379 5375 5372 5369 5366 5363 5360 5357
5411 5412 5414 5414 5415 5419 5422 5423 5423 5421 5420 5421 5421 5421 5423 5424 5423 5422 5422 5423 5424 5424 5425 5427 5427 5428 5428 5428 5429 5430 5431 5431 5432 5432 5432 5432 5431 5431 5431 5431 5432 5432 5432 5432 5432 5432 5432 5431 5430 5429 5428 5427 5426 5424 5423 5422 5421 5420 5418 5418 5416 5413 5411 5410 5407 5404 5402 5400 5398 5395 5392 5390 5387 5384 5381 5377 5372 5369 5365 5362 5359 5356 5353 5350 5347
5397 5398 5399 5400 5401 5404 5407 5409 5411 5410 5408 5409 5409 5410 5412 5413 5411 5410 5410 5411 5411 5412 5413 5414 5415 5416 5417 5417 5418 5419 5419 5420 5420 5421 5421 5422 5421 5421 5421 5421 5422 5422 5422 5422 5422 5422 5422 5421 5421 5420 5419 5418 5416 5414 5413 5412 5411 5410 5408 5407 5406 5403 5402 5400 5397 5394 5391 5389 5387 5384 5381 5379 5377 5373 5370 5366 5362 5359 5356 5353 5350 5347 5344 5341 5338
5384 5385 5384 5385 5387 5389 5391 5395 5399 5400 5398 5397 5398 5398 5400 5400 5399 5398 5399 5399 5400 5401 5402 5402 5403 5404 5405 5406 5406 5407 5408 5409 5409 5410 5410 5411 5411 5411 5411 5411 5412 5412 5413 5412 5412 5412 5412 5411 5411 5410 5409 5407 5406 5404 5403 5402 5401 5399 5398 5396 5395 5394 5392 5390 5388 5384 5381 5379 5377 5374 5371 5369 5366 5363 5360 5356 5353 5349 5346 5343 5341 5338 5335 5332 5328
5373 5372 5371 5372 5373 5376 5378 5381 5386 5388 5386 5384 5385 5386 5386 5386 5385 5386 5387 5388 5389 5390 5391 5391 5391 5393 5394 5394 5395 5396 5396 5397 5398 5398 5399 5400 5400 5401 5401 5402 5402 5402 5402 5403 5403 5403 5402 5402 5401 5399 5398 5397 5396 5394 5393 5393 5391 5390 5388 5387 5386 5385 5382 5380 5378 5374 5371 5369 5367 5364 5362 5359 5357 5354 5350 5347 5343 5340 5337 5334 5331 5329 5326 5323 5319
5364 5361 5360 5360 5361 5363 5365 5367 5370 5373 5371 5370 5372 5374 5373 5373 5373 5374 5375 5376 5377 5377 5378 5379 5380 5381 5382 5383 5384 5385 5386 5387 5387 5388 5389 5390 5390 5390 5391 5392 5392 5392 5392 5392 5392 5392 5392 5392 5390 5389 5388 5387 5386 5385 5385 5384 5382 5381 5379 5378 5376 5374 5372 5370 5368 5365 5361 5360 5358 5355 5353 5350 5347 5344 5341 5337 5334 5331 5328 5325 5323 5320 5317 5314 5310
5352 5350 5349 5349 5349 5350 5351 5353 5356 5357 5356 5356 5359 5361 5361 5361 5360 5361 5361 5362 5363 5364 5365 5367 5369 5370 5371 5372 5373 5374 5375 5376 5376 5378 5379 5380 5380 5381 5381 5381 5382 5382 5382 5382 5382 5382 5382 5381 5380 5379 5378 5377 5376 5376 5375 5372 5371 5371 5370 5368 5366 5364 5362 5360 5358 5355 5352 5350 5349 5346 5343 5340 5337 5334 5331 5328 5325 5323 5320 5317 5314 5311 5308 5305 5302
5336 5335 5335 5336 5336 5335 5336 5339 5342 5342 5341 5342 5346 5348 5349 5348 5347 5347 5348 5349 5350 5352 5353 5355 5357 5359 5360 5361 5362 5363 5364 5365 5366 5367 5368 5368 5370 5371 5371 5371 5372 5373 5372 5373 5373 5373 5372 5371 5370 5369 5368 5367 5367 5365 5363 5361 5361 5360 5358 5357 5355 5353 5352 5351 5348 5345 5342 5340 5338 5336 5333 5331 5328 5325 5322 5319 5316 5314 5311 5308 5305 5303 5300 5297 5294
5317 5317 5319 5321 5321 5321 5321 5323 5327 5327 5326 5328 5332 5336 5337 5336 5334 5333 5334 5335 5337 5339 5341 5344 5346 5347 5349 5350 5350 5352 5353 5354 5355 5356 5357 5357 5358 5359 5359 5360 5361 5362 5361 5361 5362 5363 5362 5361 5361 5360 5359 5358 5357 5354 5353 5352 5351 5349 5347 5346 5344 5343 5342 5340 5337 5334 5331 5329 5328 5325 5323 5321 5319 5315 5313 5310 5308 5306 5303 5300 5297 5294 5292 5289 5286